date,time,DOY,Ta_1_1_1,RH_1_1_1,LWin_1_1_1,LWout_1_1_1,SWin_1_1_1,SWout_1_1_1,PPFD_1_1_1,SWC_1_1_1,Ts_1_1_1
[yyyy-mm-dd],[HH:MM],[ddd.ddd],[K],[%],[W+1m-2],[W+1m-2],[W+1m-2],[W+1m-2],[µmol+1m-2s-1],[m+3m-3],[K]
2013-01-27,00:30,27.020,264.45133333333337,71.579999999999984,-6.0453333333333337,-9999.0,-9.93333333333333290E-002,-1.3313333333333330,1.40000000000000020E-002,-9999.0,279.90999999999991
2013-01-27,01:00,27.041,264.29866666666669,71.290333333333336,-7.8203333333333340,-9999.0,6.53333333333333405E-002,-2.5546666666666669,1.20000000000000020E-002,-9999.0,279.90999999999991
2013-01-27,01:30,27.062,264.10233333333332,72.664666666666662,-6.6903333333333332,-9999.0,-6.23333333333333239E-002,-1.3806666666666667,2.06666666666666700E-002,-9999.0,279.90999999999991
2013-01-27,02:00,27.083,264.27800000000002,72.451333333333338,-5.9876666666666658,-8.1733333333333338,-0.15266666666666670,-0.96066666666666656,1.76666666666666708E-002,-9999.0,279.90999999999991
2013-01-27,02:30,27.104,264.52000000000004,71.722333333333339,-5.9156666666666666,-9999.0,-0.15000000000000002,-0.89333333333333331,1.60000000000000003E-002,-9999.0,279.90999999999991
2013-01-27,03:00,27.124,264.51966666666675,71.995333333333321,-6.9619999999999980,-9.4299999999999997,-0.11333333333333331,-1.5740000000000005,1.66666666666666699E-002,-9999.0,279.90999999999991
2013-01-27,03:30,27.145,264.83333333333337,72.054666666666648,-5.1516666666666664,-7.0623333333333314,-0.18800000000000006,-0.20866666666666672,1.23333333333333333E-002,-9999.0,279.90999999999991
2013-01-27,04:00,27.166,265.11366666666657,72.911000000000001,-4.8580000000000005,-3.3546666666666667,-0.30933333333333335,-0.13566666666666666,1.03333333333333350E-002,-9999.0,279.90999999999991
2013-01-27,04:30,27.187,265.19433333333330,76.969999999999999,-4.3389999999999995,-1.23333333333333073E-002,-0.38433333333333336,-2.73333333333333345E-002,1.16666666666666689E-002,-9999.0,279.90999999999991
2013-01-27,05:00,27.208,265.06700000000001,82.310333333333332,-4.0650000000000004,2.1706666666666674,-0.39700000000000002,6.70000000000000179E-002,7.33333333333333406E-003,-9999.0,279.90999999999991
2013-01-27,05:30,27.229,265.25666666666677,78.882999999999996,-4.1730000000000000,2.8523333333333332,-0.37300000000000011,0.12966666666666665,1.00000000000000019E-002,-9999.0,279.90999999999991
2013-01-27,06:00,27.249,265.24099999999993,77.071000000000012,-4.2573333333333334,1.0259999999999998,-0.42200000000000010,2.83333333333333354E-002,4.66666666666666705E-003,-9999.0,279.90999999999991
2013-01-27,06:30,27.270,265.34933333333333,75.232666666666674,-4.4216666666666669,0.67733333333333334,-0.37266666666666659,5.30000000000000124E-002,1.33333333333333377E-002,-9999.0,279.90999999999991
2013-01-27,07:00,27.291,265.45733333333339,74.405000000000001,-4.3806666666666674,-0.74900000000000000,-0.35233333333333333,1.00000000000000024E-003,2.33333333333333275E-002,-9999.0,279.90999999999991
2013-01-27,07:30,27.312,265.52933333333334,74.246666666666670,-4.5700000000000012,-1.2483333333333335,-0.24066666666666667,0.44400000000000006,1.1989999999999996,-9999.0,279.90999999999991
2013-01-27,08:00,27.333,265.62500000000000,74.173666666666662,-4.4846666666666666,-1.0473333333333332,1.2656666666666667,7.2150000000000016,14.631666666666666,-9999.0,279.90999999999991
2013-01-27,08:30,27.354,265.83100000000002,73.641666666666652,-4.4923333333333337,-2.9459999999999997,5.6799999999999988,27.293666666666663,55.182333333333332,-9999.0,279.90999999999991
2013-01-27,09:00,27.374,266.14633333333336,72.906999999999996,-4.7876666666666656,-7.0239130434782604,13.668333333333333,64.342666666666659,130.82466666666662,-9999.0,279.90999999999991
2013-01-27,09:30,27.395,266.60366666666670,71.250666666666660,-6.2169999999999996,-9999.0,24.273999999999997,116.17033333333335,235.88733333333329,-9999.0,279.90999999999991
2013-01-27,10:00,27.416,267.25599999999997,68.951999999999998,-4.5713333333333335,-8.2788235294117651,34.158666666666669,158.32599999999994,318.89966666666675,-9999.0,279.90999999999991
2013-01-27,10:30,27.437,268.05166666666668,66.735333333333344,-4.4093333333333327,-7.9783333333333317,37.020666666666656,171.42733333333339,349.48699999999997,-9999.0,279.90999999999991
2013-01-27,11:00,27.458,268.99600000000004,63.836666666666666,-5.0573333333333332,-9999.0,45.909666666666666,217.78100000000003,439.59033333333343,-9999.0,279.90999999999991
2013-01-27,11:30,27.479,269.55133333333339,62.187000000000012,-6.0100000000000007,-9999.0,43.916666666666657,204.55333333333334,418.03733333333332,-9999.0,279.90999999999991
2013-01-27,12:00,27.499,270.24833333333333,60.917666666666655,-6.4636666666666667,-9999.0,45.206666666666678,210.77566666666669,433.55466666666666,-9999.0,279.90999999999991
2013-01-27,12:30,27.520,270.90900000000005,58.924333333333330,-6.6276666666666664,-9999.0,38.578333333333333,180.06800000000004,374.62366666666662,-9999.0,279.90999999999991
2013-01-27,13:00,27.541,271.21733333333333,57.225666666666669,-6.6886666666666681,-9999.0,38.712000000000010,181.61166666666665,378.38333333333321,-9999.0,279.90999999999991
2013-01-27,13:30,27.562,271.54400000000004,55.406999999999996,-6.8816666666666668,-9999.0,34.279666666666671,159.26466666666664,334.58500000000004,-9999.0,279.90999999999991
2013-01-27,14:00,27.583,271.83433333333329,54.948333333333338,-6.8433333333333355,-9999.0,31.166333333333338,145.48300000000000,308.33866666666671,-9999.0,279.90999999999991
2013-01-27,14:30,27.604,272.14133333333331,55.880666666666670,-7.5200000000000014,-9999.0,36.414333333333339,170.49799999999999,353.94933333333336,-9999.0,279.90999999999991
2013-01-27,15:00,27.624,272.16066666666671,57.005333333333326,-7.8136666666666672,-9999.0,25.498666666666676,119.22199999999999,248.45566666666664,-9999.0,279.90999999999991
2013-01-27,15:30,27.645,271.97466666666674,59.183333333333344,-7.3060000000000000,-9999.0,12.784666666666668,61.125000000000000,130.67566666666667,-9999.0,279.90999999999991
2013-01-27,16:00,27.666,271.69666666666666,62.833666666666666,-7.0486666666666657,-7.9607407407407402,3.2653333333333325,18.061000000000000,41.121000000000002,-9999.0,279.90999999999991
2013-01-27,16:30,27.687,271.09233333333339,70.497666666666660,-6.4169999999999998,-8.0886666666666667,2.0553333333333330,12.275333333333334,27.958000000000006,-9999.0,279.90999999999991
2013-01-27,17:00,27.708,270.19733333333335,85.504666666666694,-5.0949999999999998,-5.2050000000000001,0.13166666666666671,2.9353333333333338,7.7736666666666663,-9999.0,279.90999999999991
2013-01-27,17:30,27.729,269.91833333333329,92.511000000000010,-5.0210000000000008,-4.3936666666666655,-0.42233333333333345,-0.23033333333333336,0.40666666666666651,-9999.0,279.90999999999991
2013-01-27,18:00,27.749,269.92399999999992,94.141999999999996,-5.0720000000000010,-3.9760000000000000,-0.44600000000000006,-0.31533333333333330,5.00000000000000097E-003,-9999.0,279.90999999999991
2013-01-27,18:30,27.770,269.96300000000002,94.524333333333317,-4.7693333333333330,-4.1050000000000004,-0.35399999999999998,-0.29266666666666663,4.66666666666666619E-003,-9999.0,279.90999999999991
2013-01-27,19:00,27.791,269.83033333333339,94.199999999999989,-4.8640000000000008,-3.8763333333333345,-0.41200000000000009,-0.29533333333333334,5.66666666666666794E-003,-9999.0,279.90999999999991
2013-01-27,19:30,27.812,269.83366666666672,94.889333333333326,-4.9160000000000004,-3.7936666666666663,-0.39166666666666672,-0.26033333333333336,2.66666666666666658E-003,-9999.0,279.90999999999991
2013-01-27,20:00,27.833,269.85399999999998,95.068666666666658,-5.0216666666666656,-4.7370000000000010,-0.39566666666666672,-0.37133333333333329,7.66666666666666712E-003,-9999.0,279.90999999999991
2013-01-27,20:30,27.854,269.82966666666670,94.808666666666667,-5.0293333333333345,-5.2803333333333322,-0.39100000000000007,-0.35433333333333333,7.66666666666666885E-003,-9999.0,279.90999999999991
2013-01-27,21:00,27.874,269.75066666666663,94.640000000000001,-4.9126666666666674,-5.9986666666666668,-0.35399999999999993,-0.35633333333333334,3.00000000000000006E-003,-9999.0,279.90999999999991
2013-01-27,21:30,27.895,269.77233333333345,94.506333333333345,-5.2296666666666658,-7.2323333333333339,-0.36433333333333345,-0.42466666666666680,3.99999999999999922E-003,-9999.0,279.90999999999991
2013-01-27,22:00,27.916,269.69500000000005,94.859999999999999,-5.1959999999999988,-6.9480000000000022,-0.40033333333333337,-0.43500000000000011,5.00000000000000097E-003,-9999.0,279.90999999999991
2013-01-27,22:30,27.937,269.60933333333338,95.252666666666670,-5.3143333333333338,-7.1293333333333342,-0.42466666666666675,-0.45266666666666672,6.66666666666666709E-003,-9999.0,279.90999999999991
2013-01-27,23:00,27.958,269.59800000000001,95.082333333333338,-5.4296666666666678,-7.6300000000000008,-0.39999999999999997,-0.47800000000000004,8.33333333333333495E-003,-9999.0,279.90999999999991
2013-01-27,23:30,27.979,269.61700000000002,95.293999999999997,-5.5226666666666668,-7.4233333333333329,-0.42799999999999999,-0.48433333333333345,8.33333333333333495E-003,-9999.0,279.90999999999991
2013-01-28,00:00,28.000,269.60833333333335,95.965666666666664,-5.5939999999999985,-7.3023333333333325,-0.46466666666666673,-0.50600000000000001,7.66666666666666798E-003,-9999.0,279.90999999999991
